DELTA 1 DEB, 10750

Orbit data source: Space-Track

DELTA 1 DEB, 10750 is space debris in SSO originally from a launch on Thu, 29 Jul 1976 UTC launched from the Air Force Western Test Range (AFWTR). Debris objects in space refer to the collection of defunct objects orbiting the Earth. Examples of debris include non-operational satellites, rocket bodies, and fragments generated from explosions, collisions, or faulty payload assembly.

Loading next visibility...
Identifier
10750, 1976-077AX
Orbit
SSO
Country
Flag of USUS
Related business
Manufacturer
Unknown
Mission
Spacecraft
Bus & Motor
Unknown
Mass
Unknown
Launch date (UTC)
1976-07-29 (50 years ago)
Launch vehicle
Unknown
Launch site
Air Force Western Test Range (AFWTR)
Object type
Payload
Rocket body
Debris
Shape & HBR
Unknown shape, 0.1 m
Radar Cross Section
Small (<0.1 m²)

Expand to show TLE details & history
Last TLE update: 13 hours ago

TLE from 13 hours ago
0 DELTA 1 DEB
1 10750U 76077AX  26119.34059057  .00006712  00000-0  40602-2 0  9992
2 10750 101.6591  69.5667 0370326 252.1866 103.8556 13.77847449358927
Epoch: 2026-04-29T08:10Z
TLE epoch observation values (Epoch: 2026-04-29T08:10:27.025Z)
Latitude
-0.00001°
Longitude
89.65115°
Altitude
1,048.844 km
Speed
7.29 km/s
True Right ascension
04h 38m 16s
True Declination
0° 00' 00"
Sunlit
Object was in daylight at epoch
Visualization orbit readout
Latitude
Unknown
Longitude
Unknown
Altitude
Unknown
Speed
Unknown
Apparent Right ascension
Unknown
Apparent Declination
Unknown
Sunlit
N/A
Visualization observer readout
Local Sidereal Time
04:42:11
Azimuth
Unknown
Elevation
Unknown
Doppler factor
Unknown
Orbital elements
Apogee altitude
1,240.982 km
Perigee altitude
696.822 km
Semi-major axis
7,347.039 km
Eccentricity
0.03703
Inclination
101.6591°
RAAN
69.5667°
Arg. of periapsis
252.1866°
True anomaly
107.92713°
Mean anomaly
103.8556°
Eccentric anomaly
105.89627°
Mean motion
3.44647 °/min
Orbital period
104.45 mins
BSTAR
0.0040602
Loading maneuver chart data...
Computing Atmospheric mass density...
Loading historical data...
Loading historical data...
Loading historical data...
Loading historical data...
Loading historical data...
Loading historical data...
Loading historical data...

Documentation

Showing up to 5 results
|